User: anonymous   Login
Location: Bouchavesnes-Bergen
(49.9859°N, 2.9203°E)
Time: 01:36:52
(UTC+00:00)
Language:

Meteor 1-11 Rocket - Orbit

View from above orbital plane
View from above orbital plane
View from above satellite
View from above satellite

Ground track
Ground track

The orbit data is extracted from the following two-line orbital elements,

1 05918U 72022B   21136.60659915 -.00000051  00000-0 -37824-4 0  9996
2 05918  81.2403  23.0745 0056977 270.5432  88.9208 14.05884934518578
Epoch (UTC): 16 May 2021 14:33:30
Eccentricity: 0.0056977
inclination: 81.2403°
perigee height: 832 km
apogee height: 915 km
right ascension of ascending node: 23.0745°
argument of perigee: 270.5432°
revolutions per day: 14.05884934
mean anomaly at epoch: 88.9208°
orbit number at epoch: 51857

The dashed part of the orbit path shows where the satellite is in the earth's shadow,  

DLR